Location: Bh?mavarapp?du
(16.7041°N, 80.6518°E)
Time: 05:32:53
(UTC+00:00)

Feng Yun 1-1 Rocket - Visible Passes

Search period start: 28 July 2021 00:00
Search period end: 07 August 2021 00:00
Orbit: 830 x 933 km, 99.2° (Epoch: 27 July)

Date Brightness Start Highest point End Pass type
(mag) Time Alt. Az. Time Alt. Az. Time Alt. Az.
28 Jul 5.2 13:52:39 10° S 13:58:23 53° WSW 14:04:08 10° NNW visible
29 Jul 5.1 13:49:48 10° S 13:55:35 57° WSW 14:01:22 10° NNW visible
30 Jul 5.0 13:46:59 10° S 13:52:47 61° WSW 13:58:36 10° NNW visible
31 Jul 4.9 13:44:09 10° S 13:50:00 65° WSW 13:55:51 10° NNW visible
01 Aug 4.8 13:41:19 10° S 13:47:12 70° WSW 13:53:04 10° NNW visible
02 Aug 4.7 13:38:30 10° S 13:44:24 75° WSW 13:50:17 10° NNW visible
03 Aug 4.6 13:35:42 10° S 13:41:37 80° WSW 13:47:30 10° NNW visible
04 Aug 4.5 13:32:53 10° SSE 13:38:49 85° WSW 13:44:42 10° NNW visible
05 Aug 4.5 13:30:06 10° SSE 13:36:02 89° ENE 13:41:54 10° NNW visible
06 Aug 4.4 13:27:19 10° SSE 13:33:14 84° ENE 13:39:06 10° N visible
